Powrót do katalogu

STARLINK-4083

AktywnyŁącznośćVLEO
NORAD 52832·PAYLOAD·🇺🇸 United States

Wystrzelony Jun 17, 2022 z Cape Canaveral Space Force Station

Loading…

Następne Przeloty (najbliższe 24 godziny)

TLE

ŚwieżeSource: CelesTrak SupGP

Epoka: Sep 15, 2026, 02:36 UTC

1 52832C 22062C   26258.10881944 -.00029141  00000+0 -93697-3 0  2583
2 52832  53.1574 253.9055 0001267  94.3146 100.7893 15.31720848    17

Śledź STARLINK-4083 w czasie rzeczywistym z AllMySat

Download on the App Store